User: anonymous   Login
Location: Unspecified
(0.0000°N, 0.0000°E)
Time: 19:06:36
(UTC+00:00)
Language:

CHUBUSAT 2 - Orbit

View from above orbital plane
View from above orbital plane
View from above satellite
View from above satellite

Ground track
Ground track

The orbit data is extracted from the following two-line orbital elements,

1 41338U 16012B   18350.90903060 +.00000275 +00000-0 +14723-4 0  9998
2 41338 031.0022 232.6582 0013639 083.0745 277.1442 15.00069427155299
Epoch (UTC): 16 December 2018 21:49:00
Eccentricity: 0.0013639
inclination: 31.0022°
perigee height: 557 km
apogee height: 576 km
right ascension of ascending node: 232.6582°
argument of perigee: 83.0745°
revolutions per day: 15.00069427
mean anomaly at epoch: 277.1442°
orbit number at epoch: 15529

The dashed part of the orbit path shows where the satellite is in the earth's shadow,  

DLR